{"data":{"norad_id":43028,"epoch":"2026-09-19T20:53:05.019936Z","epoch_age_seconds":105962,"freshness":"FRESH","line1":"1 43028U 17075A   26262.87019699  .00001940  00000+0  14264-3 0  9997","line2":"2 43028  34.9947  53.1403 0001472  31.6513 328.4283 15.03208430481508","mean_motion":15.0320843,"eccentricity":0.0001472,"inclination_deg":34.9947,"raan_deg":53.1403,"arg_perigee_deg":31.6513,"mean_anomaly_deg":328.4283,"bstar":0.00014264,"rev_number":48150,"period_min":95.795098754203,"perigee_km":555.98970938027,"apogee_km":558.03141682285,"semimajor_km":6935.1475631016,"source":"CELESTRAK","updated_at":"2026-09-20T09:00:14.266462Z"}}